Weather Roundup
Issued by NWS

Home | Current Version | Previous Version | Text Only | Print | Product List | Glossary On
Versions: 1 2 3 4 5 6 7 8 9 10 11 12 13 14 15 16 17 18 19 20 21 22 23 24 25 26 27 28 29 30 31 32 33 34 35 36 37 38 39 40 41 42 43 44 45 46 47 48 49 50
506
NZUS93 KARX 230010
HRRWXR

CURRENT HOURLY OBSERVATIONS ACROSS
MUCH OF THE UPPER MISSISSIPPI VALLEY
NATIONAL WEATHER SERVICE LA CROSSE WI
700 PM CDT WED MAR 22 2017


...SOUTHEAST MINNESOTA...


CITY           SKY/WX    TMP DP  RH WIND       PRES   REMARKS
ROCHESTER      CLOUDY    35  17  47 SE13      30.36F WCI  26
ROCHESTER/MAYO CLOUDY    37  11  35 SE14      30.37F WCI  28
WINONA         CLOUDY    37  10  32 S7        30.41F WCI  32
AUSTIN         CLOUDY    37  19  48 SE9       30.34F WCI  31
ALBERT LEA     CLOUDY    37  19  48 SE12      30.33F WCI  30
DODGE CENTER   CLOUDY    36  19  51 SE13      30.34F WCI  27
PRESTON        CLOUDY    37  11  35 SE9       30.38F WCI  30
OWATONNA       CLOUDY    37  18  44 SE12G17   30.33F WCI  30
FARIBAULT      CLOUDY    37  19  48 SE12      30.34F WCI  30
$$

...ELSEWHERE IN MINNESOTA...


CITY           SKY/WX    TMP DP  RH WIND       PRES   REMARKS
MINNEAPOLIS    CLOUDY    38  12  34 S10       30.36F WCI  31
INTNL FALLS    CLOUDY    34   7  32 S9        30.25F WCI  27
DULUTH         PTCLDY    26  17  68 SE13      30.33F WCI  15
RED WING       CLOUDY    39   9  28 SE9       30.37F WCI  33
REDWOOD FALLS  CLOUDY    35  24  64 SE18      30.25F WCI  24
MANKATO        CLOUDY    37  21  52 SE17      30.32F WCI  27
WORTHINGTON    CLOUDY    34  24  67 SE20      30.20F WCI  23
FAIRMONT       CLOUDY    35  25  66 SE15      30.28F WCI  25
$$

...SOUTHWEST WISCONSIN...


CITY           SKY/WX    TMP DP  RH WIND       PRES   REMARKS
LA CROSSE      CLEAR     41  10  28 S9        30.42F
PRAIRIE DU CHI PTCLDY    39   9  28 SE6       30.43F WCI  35
BOSCOBEL       CLOUDY    40   9  28 VRB3      30.45S
LONE ROCK      CLOUDY    39  13  34 SE8       30.45S WCI  33
PLATTEVILLE    PTCLDY    37  17  42 SE8       30.43S WCI  31
FORT MC COY    CLEAR     38  10  32 SE7       30.43F WCI  32
CAMP DOUGLAS   MOCLDY    36  10  35 SE8       30.43F WCI  29
MAUSTON-NEW LI PTCLDY    37  14  38 SE8       30.43F WCI  30
VIROQUA        FAIR      36  10  32 SE9       30.41F WCI  29
WIS DELLS      PTCLDY    35  15  43 SE5       30.45S WCI  31
$$

...ELSEWHERE IN WISCONSIN...


CITY           SKY/WX    TMP DP  RH WIND       PRES   REMARKS
MILWAUKEE      MOCLDY    28  16  60 E7        30.52F WCI  21
MADISON        MOCLDY    36  15  42 SE9       30.45F WCI  29
GREEN BAY      PTCLDY    33  21  61 S9        30.50F WCI  25
EAU CLAIRE     PTCLDY    37   6  27 SE9       30.38F WCI  30
BLACK RVR FLS  FAIR      39   3  22 SE5       30.42F
MEDFORD        CLEAR     30  13  48 SE5       30.39F WCI  25
WAUSAU         CLEAR     32   7  35 S8        30.41F WCI  25
WIS RAPIDS     CLOUDY    35   7  31 SE6       30.44F WCI  30
MARSHFIELD     PTCLDY    33  10  38 S8        30.40F WCI  26
RICE LAKE      PTCLDY    34   8  34 CALM      30.39F
$$

...NORTHEAST IOWA...


CITY           SKY/WX    TMP DP  RH WIND       PRES   REMARKS
WATERLOO       CLOUDY    41  14  33 SE14      30.37F
DUBUQUE        CLOUDY    37  17  44 SE7       30.42F WCI  32
DECORAH        CLOUDY    37  12  35 SE8G15    30.39S WCI  31
MASON CITY     CLOUDY    38  22  52 SE12      30.35F WCI  30
CHARLES CITY   CLOUDY    39  14  35 SE16      30.36F WCI  30
OELWEIN        CLOUDY    39  18  41 SE14      30.40S WCI  31
$$

...ELSEWHERE IN IOWA...


CITY           SKY/WX    TMP DP  RH WIND       PRES   REMARKS
DES MOINES     CLOUDY    45  22  40 E14G21    30.31F
IOWA CITY      CLOUDY    43  19  38 E10       30.41F
FORT DODGE     CLOUDY    41  19  42 SE15G22   30.29F
MARSHALLTOWN   CLOUDY    41  17  38 SE18      30.32F
CEDAR RAPIDS   CLOUDY    40  18  41 SE12      30.38F WCI  33
$$

...NORTHERN ILLINOIS...


CITY           SKY/WX    TMP DP  RH WIND       PRES   REMARKS
CHICAGO-OHARE  CLOUDY    31  17  56 NE9       30.50F WCI  23
CHICAGO-MIDWAY MOCLDY    31  18  58 N8        30.51F WCI  23
MOLINE         MOCLDY    41  21  44 SE10      30.43F
ROCKFORD       CLOUDY    39  17  41 E10       30.48F WCI  32
PEORIA         MOCLDY    40  19  43 E9        30.45R WCI  34
$$

NOTE: "FAIR" INDICATES FEW OR NO CLOUDS BELOW 12,000 FEET WITH NO
SIGNIFICANT WEATHER AND/OR OBSTRUCTIONS TO VISIBILITY. WIND
SPEEDS ARE IN MILES-PER-HOUR.




USA.gov is the U.S. government's official web portal to all federal, state and local government web resources and services.